When you browse on this site, cookies collect data to enhance your experience and personalize the content and advertising you see.
Visit our Privacy Policy to learn more. By continuing to use the site, you agree to this use of cookies and data.
  • In Austria
  • List of Countries
  • For 7 days
  • Water Temperature
  • Satellite Maps
  • Weather Map
  • News
  • Weather Widgets
  • user-avatar
    Login

    Hourly Weather Finevo

    Today, 16 February, Saturday

    Time Temperature Precipitation Wind Pressure Humidity
    00:00 -1°C° 0 mm 4 mps 744 mmHg 96%
    01:00 -1°C° 0 mm 4 mps 744 mmHg 96%
    02:00 -1°C° 0 mm 4 mps 745 mmHg 97%
    03:00 0°C° 0 mm 3 mps 745 mmHg 97%
    04:00 0°C° 0 mm 3 mps 744 mmHg 98%
    05:00 0°C° 0 mm 3 mps 744 mmHg 98%
    06:00 0°C° 0 mm 3 mps 744 mmHg 98%
    07:00 0°C° 0 mm 3 mps 744 mmHg 98%
    08:00 0°C° 0 mm 3 mps 744 mmHg 98%
    09:00 0°C° 0 mm 3 mps 744 mmHg 97%
    10:00 0°C° 0 mm 3 mps 744 mmHg 96%
    11:00 +1°C° 0 mm 3 mps 743 mmHg 95%
    12:00 +1°C° 0 mm 3 mps 743 mmHg 94%
    13:00 +1°C° 0 mm 3 mps 742 mmHg 93%
    14:00 +2°C° 0 mm 3 mps 742 mmHg 92%
    15:00 +1°C° 0 mm 3 mps 742 mmHg 90%
    16:00 +1°C° 0 mm 3 mps 741 mmHg 88%
    17:00 +1°C° 0 mm 3 mps 741 mmHg 87%
    18:00 0°C° 0 mm 3 mps 740 mmHg 86%
    19:00 0°C° 0 mm 3 mps 740 mmHg 85%
    20:00 -1°C° 0 mm 4 mps 739 mmHg 84%
    21:00 -1°C° 0 mm 4 mps 739 mmHg 85%
    22:00 -1°C° 0 mm 4 mps 738 mmHg 85%
    23:00 -1°C° 0 mm 4 mps 738 mmHg 86%

    Tomorrow, 17 February, Sunday

    Time Temperature Precipitation Wind Pressure Humidity
    00:00 -1°C° 0 mm 4 mps 738 mmHg 86%
    01:00 -1°C° 0 mm 4 mps 738 mmHg 87%
    02:00 -2°C° 0 mm 4 mps 737 mmHg 88%
    03:00 -1°C° 0 mm 4 mps 737 mmHg 88%
    04:00 -1°C° 0 mm 4 mps 737 mmHg 89%
    05:00 -1°C° 0 mm 5 mps 737 mmHg 90%
    06:00 -1°C° 0 mm 5 mps 737 mmHg 90%
    07:00 -1°C° 0 mm 5 mps 737 mmHg 90%
    08:00 -1°C° 0 mm 4 mps 737 mmHg 90%
    09:00 -1°C° 0 mm 5 mps 737 mmHg 85%
    10:00 -1°C° 0 mm 5 mps 738 mmHg 80%
    11:00 -1°C° 0 mm 5 mps 738 mmHg 76%
    12:00 -1°C° 0 mm 5 mps 738 mmHg 74%
    13:00 -2°C° 0 mm 6 mps 738 mmHg 73%
    14:00 -2°C° 0 mm 6 mps 738 mmHg 72%
    15:00 -3°C° 0 mm 6 mps 739 mmHg 73%
    16:00 -3°C° 0 mm 6 mps 739 mmHg 74%
    17:00 -4°C° 0 mm 5 mps 740 mmHg 75%
    18:00 -4°C° 0 mm 5 mps 740 mmHg 75%
    19:00 -5°C° 0 mm 5 mps 741 mmHg 75%
    20:00 -5°C° 0 mm 5 mps 742 mmHg 76%
    21:00 -6°C° 0 mm 5 mps 742 mmHg 77%
    22:00 -5°C° 0 mm 4 mps 743 mmHg 78%
    23:00 -5°C° 0 mm 4 mps 743 mmHg 78%

    Day after tomorrow, 18 February, Monday

    Time Temperature Precipitation Wind Pressure Humidity
    00:00 -7°C° 0 mm 4 mps 744 mmHg 79%
    01:00 -7°C° 0 mm 4 mps 744 mmHg 80%
    02:00 -6°C° 0 mm 3 mps 745 mmHg 81%
    03:00 -6°C° 0 mm 3 mps 745 mmHg 82%
    04:00 -6°C° 0 mm 3 mps 746 mmHg 83%
    05:00 -7°C° 0 mm 3 mps 746 mmHg 84%
    06:00 -7°C° 0 mm 3 mps 747 mmHg 84%
    07:00 -7°C° 0 mm 3 mps 747 mmHg 85%
    08:00 -6°C° 0 mm 2 mps 748 mmHg 86%
    09:00 -6°C° 0 mm 2 mps 748 mmHg 83%
    10:00 -5°C° 0 mm 2 mps 749 mmHg 80%
    11:00 -4°C° 0 mm 2 mps 749 mmHg 77%
    12:00 -4°C° 0 mm 2 mps 749 mmHg 74%
    13:00 -2°C° 0 mm 1 mps 749 mmHg 71%
    14:00 -1°C° 0 mm 1 mps 749 mmHg 68%
    15:00 -2°C° 0 mm 1 mps 749 mmHg 71%
    16:00 -3°C° 0 mm 1 mps 749 mmHg 75%
    17:00 -3°C° 0 mm 1 mps 749 mmHg 78%
    18:00 -3°C° 0 mm 1 mps 749 mmHg 79%
    19:00 -6°C° 0 mm 2 mps 749 mmHg 79%
    20:00 -6°C° 0 mm 2 mps 749 mmHg 79%
    21:00 -5°C° 0 mm 2 mps 749 mmHg 78%
    22:00 -6°C° 0 mm 3 mps 748 mmHg 77%
    23:00 -6°C° 0 mm 3 mps 748 mmHg 76%

    19 February, Tuesday

    Time Temperature Precipitation Wind Pressure Humidity
    00:00 -7°C° 0 mm 4 mps 747 mmHg 74%
    01:00 -5°C° 0 mm 4 mps 747 mmHg 71%
    02:00 -5°C° 0 mm 4 mps 747 mmHg 69%
    03:00 -5°C° 0 mm 4 mps 746 mmHg 69%
    04:00 -6°C° 0 mm 5 mps 746 mmHg 70%
    05:00 -6°C° 0 mm 5 mps 745 mmHg 70%
    06:00 -5°C° 0 mm 5 mps 745 mmHg 72%
    07:00 -5°C° 0 mm 5 mps 744 mmHg 74%
    08:00 -5°C° 0 mm 5 mps 744 mmHg 77%
    09:00 -4°C° 0 mm 5 mps 743 mmHg 77%
    10:00 -2°C° 0 mm 5 mps 743 mmHg 77%
    11:00 -1°C° 0 mm 5 mps 743 mmHg 77%
    12:00 0°C° 0 mm 5 mps 742 mmHg 77%
    13:00 0°C° 0 mm 5 mps 742 mmHg 76%
    14:00 0°C° 0 mm 5 mps 741 mmHg 76%
    15:00 0°C° 0 mm 5 mps 740 mmHg 77%
    16:00 -1°C° 0 mm 5 mps 740 mmHg 79%
    17:00 -1°C° 0 mm 5 mps 739 mmHg 80%
    18:00 -2°C° 0 mm 5 mps 739 mmHg 82%
    19:00 -2°C° 0 mm 5 mps 738 mmHg 83%
    20:00 -2°C° 0 mm 5 mps 738 mmHg 85%
    21:00 -2°C° 0 mm 5 mps 737 mmHg 86%
    22:00 -2°C° 0 mm 5 mps 737 mmHg 87%
    23:00 -1°C° 0 mm 5 mps 736 mmHg 88%

    20 February, Wednesday

    Time Temperature Precipitation Wind Pressure Humidity
    00:00 -1°C° 0.1 mm 4 mps 736 mmHg 89%
    01:00 -1°C° 0.1 mm 4 mps 735 mmHg 90%
    02:00 -1°C° 0.1 mm 4 mps 734 mmHg 91%
    03:00 -1°C° 1 mm 4 mps 733 mmHg 91%
    04:00 -1°C° 1 mm 4 mps 733 mmHg 91%
    05:00 -1°C° 1 mm 4 mps 732 mmHg 92%
    06:00 -1°C° 0.7 mm 4 mps 732 mmHg 92%
    07:00 -1°C° 0.7 mm 4 mps 732 mmHg 93%
    08:00 -1°C° 0.7 mm 4 mps 732 mmHg 94%
    09:00 -1°C° 0.2 mm 4 mps 731 mmHg 93%
    10:00 0°C° 0.2 mm 4 mps 731 mmHg 92%
    11:00 0°C° 0.2 mm 4 mps 731 mmHg 92%
    12:00 0°C° 0.3 mm 4 mps 731 mmHg 91%
    13:00 0°C° 0.3 mm 4 mps 731 mmHg 90%
    14:00 0°C° 0.3 mm 4 mps 731 mmHg 89%
    15:00 0°C° 0.4 mm 5 mps 731 mmHg 87%
    16:00 0°C° 0.4 mm 5 mps 730 mmHg 85%
    17:00 -1°C° 0.4 mm 6 mps 730 mmHg 83%
    18:00 -2°C° 0.2 mm 6 mps 731 mmHg 82%
    19:00 -1°C° 0.2 mm 5 mps 731 mmHg 81%
    20:00 -2°C° 0.2 mm 5 mps 731 mmHg 80%
    21:00 -2°C° 0.2 mm 5 mps 731 mmHg 82%
    22:00 -3°C° 0.2 mm 6 mps 731 mmHg 83%
    23:00 -4°C° 0.2 mm 6 mps 732 mmHg 85%

    21 February, Thursday

    Time Temperature Precipitation Wind Pressure Humidity
    00:00 -3°C° 0.3 mm 6 mps 732 mmHg 85%
    01:00 -3°C° 0.3 mm 6 mps 732 mmHg 85%
    02:00 -3°C° 0.3 mm 6 mps 733 mmHg 85%
    03:00 -3°C° 0.2 mm 6 mps 733 mmHg 85%
    04:00 -2°C° 0.2 mm 5 mps 734 mmHg 86%
    05:00 -2°C° 0.2 mm 5 mps 735 mmHg 86%
    06:00 -4°C° 0.2 mm 5 mps 735 mmHg 83%
    07:00 -5°C° 0.2 mm 5 mps 736 mmHg 81%
    08:00 -6°C° 0.2 mm 6 mps 736 mmHg 78%
    09:00 -6°C° 0.1 mm 6 mps 737 mmHg 76%
    10:00 -6°C° 0.1 mm 6 mps 737 mmHg 74%
    11:00 -6°C° 0.1 mm 6 mps 738 mmHg 73%
    12:00 -6°C° 0.1 mm 6 mps 738 mmHg 72%
    13:00 -6°C° 0.1 mm 6 mps 739 mmHg 72%
    14:00 -6°C° 0.1 mm 6 mps 739 mmHg 72%
    15:00 -6°C° 0.1 mm 6 mps 740 mmHg 72%
    16:00 -8°C° 0.1 mm 6 mps 741 mmHg 72%
    17:00 -7°C° 0.1 mm 5 mps 741 mmHg 72%
    18:00 -8°C° 0 mm 5 mps 742 mmHg 72%
    19:00 -10°C° 0 mm 5 mps 743 mmHg 73%
    20:00 -10°C° 0 mm 4 mps 744 mmHg 73%
    21:00 -10°C° 0 mm 4 mps 744 mmHg 74%
    22:00 -11°C° 0 mm 4 mps 745 mmHg 74%
    23:00 -11°C° 0 mm 4 mps 745 mmHg 75%
    Show more